Location: Joplin
(37.0842°N, 94.5131°W)
Time: 11:49:20
(UTC-05:00)

Tiangong 2 - Visible Passes

Search period start: 23 October 2018 00:00
Search period end: 02 November 2018 00:00
Orbit: 384 x 392 km, 42.8° (Epoch: 23 October)

Date Brightness Start Highest point End Pass type
(mag) Time Alt. Az. Time Alt. Az. Time Alt. Az.
25 Oct 3.5 19:40:55 10° SSE 19:41:41 12° SSE 19:41:41 12° SSE visible
26 Oct 3.1 20:17:20 10° SW 20:18:44 22° SSW 20:18:44 22° SSW visible
27 Oct 2.5 19:19:27 10° SSW 19:22:05 24° SE 19:23:22 18° ESE visible
27 Oct 4.7 20:55:36 10° W 20:55:40 10° W 20:55:40 10° W visible
28 Oct 1.0 19:57:08 10° WSW 20:00:12 82° SW 20:00:12 82° SW visible
29 Oct 1.6 18:58:53 10° SW 19:01:56 47° SSE 19:04:38 12° ENE visible
29 Oct 3.9 20:35:49 10° W 20:36:56 19° WNW 20:36:56 19° WNW visible
30 Oct 1.5 19:37:11 10° W 19:40:18 55° NNW 19:41:18 35° NE visible
31 Oct 3.1 20:16:03 10° WNW 20:17:54 24° NW 20:17:54 24° NW visible
01 Nov 2.1 19:17:21 10° W 19:20:20 37° NNW 19:22:11 19° NE visible
